Liberal, KS

12:32 PM CDT on May 21, 2018 (GMT -0500)
Liberal Municipal

Weather History for KLBL - July, 2013

Change the Weather History Date:

Wednesday, July 10, 2013

  Actual Average Record
Temperature  
Mean Temperature 84 °F -  
Max Temperature 98 °F 96 °F 109 °F (1940)
Min Temperature 71 °F 68 °F 57 °F (1996)
Cooling Degree Days 20    
Growing Degree Days 34 (Base 50)    
Moisture  
Dew Point 59 °F    
Average Humidity 44    
Maximum Humidity 69    
Minimum Humidity 27    
Precipitation  
Precipitation 0.00 in - - ()
Sea Level Pressure  
Sea Level Pressure 30.08 in    
Wind  
Wind Speed 11 mph (NNE)    
Max Wind Speed 30 mph    
Max Gust Speed 38 mph    
Visibility 10 miles    
Events Thunderstorm    
Averages and records for this station are not official NWS values.
T = Trace of Precipitation, MM = Missing Value Source: NWS Daily Summary

Daily Weather History Graph

Daily Weather History Graph

Search for Another Location

Airport or City:

Astronomy

Jul. 10, 2013 Rise Set
Actual Time 6:32 AM CDT 9:05 PM CDT
Civil Twilight 6:02 AM CDT 9:35 PM CDT
Nautical Twilight 5:24 AM CDT 10:13 PM CDT
Astronomical Twilight 4:43 AM CDT 10:54 PM CDT
Moon 8:51 AM CDT (7/10) 10:21 PM CDT (7/10)
Length of Visible Light 15h 33m
Length of Day
14h 32m
Waxing Crescent, 5% of the Moon is Illuminated
Jul 10
Waxing Crescent
Jul 15
First Quarter
Jul 22
Full
Jul 29
Last Quarter
Aug 6
New

Hourly Weather History & Observations

Time (CDT) Temp. Heat Index Dew Point Humidity Pressure Visibility Wind Dir Wind Speed Gust Speed Precip Events Conditions
12:15 AM 80.6 °F 81.1 °F 59.0 °F 48% 30.06 in 10.0 mi SSW 18.4 mph 25.3 mph N/A   Clear
12:35 AM 82.4 °F 82.0 °F 57.2 °F 42% 30.06 in 10.0 mi South 18.4 mph - N/A   Clear
12:55 AM 84.2 °F 83.0 °F 55.4 °F 37% 30.04 in 10.0 mi SSW 21.9 mph - N/A   Clear
1:15 AM 84.2 °F 83.0 °F 55.4 °F 37% 30.02 in 10.0 mi South 18.4 mph - N/A   Clear
1:35 AM 84.2 °F 82.8 °F 53.6 °F 35% 30.04 in 10.0 mi WNW 18.4 mph 25.3 mph N/A   Clear
1:55 AM 86.0 °F - 51.8 °F 31% 30.05 in 10.0 mi WNW 13.8 mph - N/A   Clear
2:15 AM 84.2 °F 82.8 °F 53.6 °F 35% 30.07 in 10.0 mi NW 11.5 mph - N/A   Clear
2:35 AM 80.6 °F 80.3 °F 53.6 °F 39% 30.08 in 10.0 mi NNW 3.5 mph - N/A   Clear
2:55 AM 80.6 °F 80.5 °F 55.4 °F 42% 30.07 in 10.0 mi North 4.6 mph - N/A   Clear
3:15 AM 78.8 °F - 57.2 °F 47% 30.08 in 10.0 mi NNE 9.2 mph - N/A   Clear
3:35 AM 78.8 °F - 57.2 °F 47% 30.07 in 10.0 mi Calm Calm - N/A   Clear
3:55 AM 75.2 °F - 57.2 °F 53% 30.07 in 10.0 mi North 5.8 mph - N/A   Clear
4:15 AM 75.2 °F - 57.2 °F 53% 30.07 in 10.0 mi NNW 4.6 mph - N/A   Clear
4:35 AM 73.4 °F - 57.2 °F 57% 30.07 in 10.0 mi WNW 6.9 mph - N/A   Clear
4:55 AM 71.6 °F - 57.2 °F 60% 30.07 in 10.0 mi NW 5.8 mph - N/A   Clear
5:15 AM 71.6 °F - 57.2 °F 60% 30.09 in 10.0 mi North 11.5 mph - N/A   Clear
5:35 AM 71.6 °F - 57.2 °F 60% 30.09 in 10.0 mi North 10.4 mph - N/A   Clear
5:55 AM 71.6 °F - 59.0 °F 64% 30.10 in 10.0 mi North 10.4 mph - N/A   Clear
6:15 AM 71.6 °F - 59.0 °F 64% 30.11 in 10.0 mi North 12.7 mph - N/A   Clear
6:35 AM 71.6 °F - 59.0 °F 64% 30.11 in 10.0 mi NNW 9.2 mph - N/A   Clear
6:55 AM 71.6 °F - 59.0 °F 64% 30.12 in 10.0 mi NNW 11.5 mph - N/A   Clear
7:15 AM 71.6 °F - 60.8 °F 69% 30.12 in 10.0 mi NNW 9.2 mph - N/A   Clear
7:35 AM 71.6 °F - 60.8 °F 69% 30.12 in 10.0 mi North 11.5 mph - N/A   Clear
7:55 AM 73.4 °F - 60.8 °F 65% 30.13 in 10.0 mi NNE 9.2 mph - N/A   Clear
8:15 AM 75.2 °F - 62.6 °F 65% 30.13 in 10.0 mi NNE 9.2 mph - N/A   Clear
8:35 AM 75.2 °F - 62.6 °F 65% 30.13 in 10.0 mi NNE 8.1 mph - N/A   Clear
8:55 AM 77.0 °F - 62.6 °F 61% 30.13 in 10.0 mi NNE 10.4 mph - N/A   Clear
9:15 AM 78.8 °F - 62.6 °F 57% 30.13 in 10.0 mi NNE 5.8 mph - N/A   Clear
9:35 AM 78.8 °F - 62.6 °F 57% 30.13 in 10.0 mi NNE 5.8 mph - N/A   Clear
9:55 AM 80.6 °F 81.8 °F 62.6 °F 54% 30.14 in 10.0 mi ENE 5.8 mph - N/A   Clear
10:15 AM 82.4 °F 83.4 °F 62.6 °F 51% 30.13 in 10.0 mi ENE 5.8 mph - N/A   Clear
10:35 AM 82.4 °F 83.4 °F 62.6 °F 51% 30.13 in 10.0 mi NNE 3.5 mph - N/A   Clear
10:55 AM 84.2 °F 85.0 °F 62.6 °F 48% 30.13 in 10.0 mi Calm Calm - N/A   Clear
11:15 AM 87.8 °F 88.5 °F 62.6 °F 43% 30.13 in 10.0 mi Calm Calm - N/A   Clear
11:35 AM 89.6 °F 90.1 °F 62.6 °F 40% 30.12 in 10.0 mi Calm Calm - N/A   Clear
11:55 AM 91.4 °F 92.1 °F 62.6 °F 38% 30.12 in 10.0 mi WNW 4.6 mph - N/A   Clear
12:15 PM 91.4 °F 91.4 °F 60.8 °F 36% 30.11 in 10.0 mi Calm Calm - N/A   Clear
12:35 PM 93.2 °F 92.6 °F 59.0 °F 32% 30.11 in 10.0 mi East 3.5 mph - N/A   Clear
12:55 PM 93.2 °F 92.6 °F 59.0 °F 32% 30.10 in 10.0 mi NNE 4.6 mph - N/A   Clear
1:15 PM 96.8 °F 97.1 °F 60.8 °F 30% 30.10 in 10.0 mi Calm Calm - N/A   Clear
1:35 PM 96.8 °F 97.1 °F 60.8 °F 30% 30.10 in 10.0 mi NNE 9.2 mph - N/A   Clear
1:55 PM 96.8 °F 97.1 °F 60.8 °F 30% 30.09 in 10.0 mi NE 5.8 mph - N/A   Clear
2:15 PM 96.8 °F 97.1 °F 60.8 °F 30% 30.08 in 10.0 mi NNE 10.4 mph 17.3 mph N/A   Clear
2:35 PM 96.8 °F 97.1 °F 60.8 °F 30% 30.08 in 10.0 mi NE 4.6 mph - N/A   Clear
2:55 PM 98.6 °F 99.4 °F 60.8 °F 29% 30.07 in 10.0 mi East 9.2 mph 23.0 mph N/A   Clear
3:15 PM 98.6 °F 99.4 °F 60.8 °F 29% 30.07 in 10.0 mi ENE 6.9 mph - N/A   Clear
3:35 PM 98.6 °F 99.4 °F 60.8 °F 29% 30.06 in 10.0 mi ENE 11.5 mph - N/A   Clear
3:55 PM 96.8 °F 95.8 °F 57.2 °F 27% 30.05 in 10.0 mi East 8.1 mph - N/A   Clear
4:15 PM 96.8 °F 95.8 °F 57.2 °F 27% 30.04 in 10.0 mi Calm Calm - N/A   Clear
4:35 PM 96.8 °F 96.2 °F 59.0 °F 28% 30.03 in 10.0 mi East 6.9 mph - N/A   Clear
4:55 PM 98.6 °F 98.5 °F 59.0 °F 27% 30.02 in 10.0 mi ENE 5.8 mph - N/A   Clear
5:15 PM 96.8 °F 96.2 °F 59.0 °F 28% 30.01 in 10.0 mi East 20.7 mph 25.3 mph N/A Thunderstorm Partly Cloudy
5:35 PM 98.6 °F 99.4 °F 60.8 °F 29% 30.01 in 10.0 mi NNE 20.7 mph 27.6 mph N/A Thunderstorm Clear
5:55 PM 91.4 °F 90.7 °F 59.0 °F 34% 30.02 in 10.0 mi NE 17.3 mph - N/A Thunderstorm Clear
6:15 PM 91.4 °F 91.4 °F 60.8 °F 36% 30.01 in 10.0 mi NE 13.8 mph - N/A   Clear
6:35 PM 91.4 °F 89.9 °F 57.2 °F 31% 30.01 in 10.0 mi ENE 12.7 mph - N/A   Clear
6:55 PM 91.4 °F 90.7 °F 59.0 °F 34% 30.02 in 10.0 mi SE 19.6 mph 25.3 mph N/A   Clear
7:15 PM 89.6 °F 88.9 °F 59.0 °F 36% 30.01 in 10.0 mi SE 17.3 mph - N/A   Clear
7:35 PM 86.0 °F 84.5 °F 55.4 °F 35% 30.02 in 10.0 mi South 16.1 mph - N/A   Clear
7:55 PM 84.2 °F 83.5 °F 57.2 °F 40% 30.02 in 10.0 mi South 13.8 mph 21.9 mph N/A   Clear
8:15 PM 84.2 °F 83.0 °F 55.4 °F 37% 30.03 in 10.0 mi South 13.8 mph - N/A   Clear
8:35 PM 84.2 °F 83.0 °F 55.4 °F 37% 30.03 in 10.0 mi SSW 9.2 mph - N/A   Clear
8:55 PM 82.4 °F 81.7 °F 55.4 °F 39% 30.04 in 10.0 mi SSW 13.8 mph - N/A   Clear
9:15 PM 80.6 °F 80.8 °F 57.2 °F 45% 30.05 in 10.0 mi SSW 11.5 mph - N/A   Clear
9:35 PM 80.6 °F 80.8 °F 57.2 °F 45% 30.05 in 10.0 mi South 10.4 mph - N/A   Clear
9:55 PM 80.6 °F 80.8 °F 57.2 °F 45% 30.07 in 10.0 mi South 9.2 mph - N/A   Clear
10:15 PM 80.6 °F 80.8 °F 57.2 °F 45% 30.08 in 10.0 mi South 9.2 mph - N/A   Clear
10:35 PM 80.6 °F 80.5 °F 55.4 °F 42% 30.09 in 10.0 mi South 9.2 mph - N/A   Clear
10:55 PM 78.8 °F - 55.4 °F 44% 30.10 in 10.0 mi SW 6.9 mph - N/A   Clear
11:15 PM 77.0 °F - 57.2 °F 50% 30.16 in 4.0 mi NW 29.9 mph 38.0 mph N/A   Clear
11:35 PM 75.2 °F - 57.2 °F 53% 30.17 in 10.0 mi NW 21.9 mph 35.7 mph N/A   Clear
11:55 PM 73.4 °F - 59.0 °F 61% 30.17 in 10.0 mi NW 24.2 mph 32.2 mph N/A   Clear